Powrót do katalogu

THORAD AGENA D DEB

AktywnySSO
NORAD 42509·DEBRIS·🇺🇸 United States

Wystrzelony Apr 8, 1970 z Vandenberg Space Force Base

Loading…

Następne Przeloty (najbliższe 24 godziny)

TLE

Starzejące sięSource: Space-Track

Epoka: Sep 4, 2026, 14:38 UTC

1 42509U 70025RP  26247.61007183  .00000640  00000-0  94255-3 0  9999
2 42509 100.0610  21.9839 0120991 312.3326  46.7611 13.55709947630671

Śledź THORAD AGENA D DEB w czasie rzeczywistym z AllMySat

Download on the App Store